Weather History for Dickinson, ND

Change the Weather History Date:

Monday, March 31, 2014

  Actual Average Record
Temperature  
Mean Temperature 9 °F 36 °F  
Max Temperature 20 °F 48 °F 77 °F (2012)
Min Temperature -2 °F 24 °F -8 °F (1975)
Degree Days  
Heating Degree Days 56 29  
Month to date heating degree days 1196 1087  
Since 1 July heating degree days 7838 7380  
Cooling Degree Days 0 0  
Month to date cooling degree days 0 0  
Year to date cooling degree days 0 0  
Moisture  
Dew Point 10 °F    
Average Humidity 79    
Maximum Humidity 91    
Minimum Humidity 67    
Precipitation  
Precipitation 0.00 in 0.03 in 0.10 in (1999)
Month to date precipitation 0.50 0.69  
Year to date precipitation 0.67 1.32  
Sea Level Pressure  
Sea Level Pressure 30.01 in    
Wind  
Wind Speed 18 mph (North)    
Max Wind Speed 32 mph    
Max Gust Speed 38 mph    
Visibility 3 miles    
Events Fog , Snow    
T = Trace of Precipitation, MM = Missing Value Source: NWS Daily Summary

Daily Weather History Graph

Daily Weather History Graph

Search for Another Location

Airport:

Trip Planner

Search our weather history database for the weather conditions in past years. The results will help you decide how hot, cold, wet, or windy it might be!

Date:

Astronomy

Mar. 31, 2014 Rise Set
Actual Time 6:32 AM MDT 7:19 PM MDT
Civil Twilight 6:01 AM MDT 7:49 PM MDT
Nautical Twilight 5:25 AM MDT 8:26 PM MDT
Astronomical Twilight 4:47 AM MDT 9:04 PM MDT
Moon 6:53 AM MDT 8:46 PM MDT
Length of Visible Light 13h 48m
Length of Day
12h 46m
New Moon, 1% of the Moon is Illuminated
Mar 31
New Moon
Apr 7
First Quarter
Apr 15
Full
Apr 22
Last Quarter
Apr 29
New

Hourly Weather History & Observations

Time (MDT) Temp. Windchill Dew Point Humidity Pressure Visibility Wind Dir Wind Speed Gust Speed Precip Events Conditions
12:17 AM 21.0 °F 4.6 °F 19.0 °F 92% 29.79 in 0.2 mi NE 23.0 mph - N/A Fog Light Freezing Fog
12:56 AM 19.9 °F 1.5 °F 17.1 °F 89% 29.87 in 0.2 mi NE 28.8 mph - N/A Fog Light Freezing Fog
1:07 AM 19.9 °F 2.8 °F 17.1 °F 89% 29.81 in 0.2 mi NE 24.2 mph - N/A Fog Light Freezing Fog
1:24 AM 19.9 °F 3.2 °F 16.0 °F 85% 29.81 in 0.5 mi NE 23.0 mph 35.7 mph N/A Fog Light Freezing Fog
1:37 AM 19.0 °F 1.0 °F 16.0 °F 88% 29.81 in 0.2 mi NE 26.5 mph 36.8 mph N/A Fog Light Freezing Fog
1:46 AM 19.0 °F 2.0 °F 16.0 °F 88% 29.81 in 0.5 mi NE 23.0 mph - N/A Fog Light Freezing Fog
1:56 AM 19.0 °F 1.0 °F 16.0 °F 88% 29.89 in 0.5 mi NE 26.5 mph 33.4 mph N/A Fog Light Freezing Fog
2:03 AM 18.0 °F -0.5 °F 15.1 °F 88% 29.82 in 0.2 mi NE 26.5 mph 38.0 mph N/A Fog Light Freezing Fog
2:16 AM 18.0 °F 0.6 °F 15.1 °F 88% 29.83 in 0.5 mi NE 23.0 mph 35.7 mph N/A Fog Light Freezing Fog
2:31 AM 19.0 °F 1.3 °F 15.1 °F 85% 29.84 in 0.2 mi NE 25.3 mph 33.4 mph N/A Fog Light Freezing Fog
2:56 AM 17.1 °F -2.0 °F 14.0 °F 88% 29.91 in 0.2 mi NNE 27.6 mph 33.4 mph N/A Fog Light Freezing Fog
3:15 AM 17.1 °F -2.4 °F 14.0 °F 88% 29.84 in 0.5 mi NNE 28.8 mph 35.7 mph N/A Fog Light Freezing Fog
3:54 AM 15.8 °F -1.9 °F 12.2 °F 86% 29.86 in 0.5 mi NNE 21.9 mph 32.2 mph N/A Fog Light Freezing Fog
3:56 AM 16.0 °F -0.9 °F 12.9 °F 88% 29.94 in 0.5 mi NNE 19.6 mph 28.8 mph N/A Fog Light Freezing Fog
4:27 AM 14.0 °F -4.7 °F 10.9 °F 88% 29.88 in 0.5 mi NNE 23.0 mph - N/A Fog Light Freezing Fog
4:56 AM 14.0 °F -3.4 °F 10.0 °F 84% 29.98 in 0.5 mi North 19.6 mph - N/A Fog Light Freezing Fog
5:15 AM 12.9 °F -4.9 °F 9.0 °F 84% 29.89 in 0.8 mi North 19.6 mph 34.5 mph N/A   Mist
5:56 AM 12.0 °F -6.0 °F 8.1 °F 84% 30.02 in 0.8 mi North 19.6 mph 27.6 mph N/A   Mist
6:56 AM 10.9 °F -8.3 °F 7.0 °F 84% 30.06 in 0.5 mi North 21.9 mph - N/A Fog Light Freezing Fog
7:03 AM 12.0 °F -6.9 °F 7.0 °F 80% 29.95 in 0.2 mi North 21.9 mph 31.1 mph N/A   Haze
7:34 AM 12.0 °F -5.6 °F 7.0 °F 80% 29.96 in 0.2 mi North 18.4 mph 31.1 mph N/A   Haze
7:56 AM 12.0 °F -8.5 °F 8.1 °F 84% 30.08 in 0.2 mi North 26.5 mph 33.4 mph N/A Fog Light Freezing Fog
8:29 AM 12.0 °F -7.7 °F 8.1 °F 84% 29.97 in 0.5 mi North 24.2 mph 29.9 mph N/A Fog Light Freezing Fog
8:36 AM 12.0 °F -8.1 °F 8.1 °F 84% 29.97 in 0.2 mi North 25.3 mph 31.1 mph N/A Fog Light Freezing Fog
8:56 AM 12.9 °F -3.9 °F 8.1 °F 81% 30.09 in 0.5 mi North 17.3 mph 27.6 mph N/A   Haze
9:35 AM 14.0 °F -3.4 °F 8.1 °F 77% 29.99 in 0.5 mi North 19.6 mph - N/A   Haze
9:56 AM 12.9 °F -3.9 °F 8.1 °F 81% 30.12 in 0.5 mi North 17.3 mph - N/A   Haze
10:56 AM 12.9 °F -5.7 °F 7.0 °F 77% 30.13 in 0.5 mi North 21.9 mph 31.1 mph 0.00 in Snow Snow
11:56 AM 15.1 °F -2.5 °F 9.0 °F 77% 30.14 in 0.8 mi NNW 20.7 mph 29.9 mph 0.00 in Snow Light Snow
12:08 PM 16.0 °F -2.1 °F 8.1 °F 71% 30.02 in 1.0 mi NNW 23.0 mph 28.8 mph 0.00 in Snow Light Snow
12:49 PM 16.0 °F -1.3 °F 8.1 °F 71% 30.02 in 1.2 mi NNW 20.7 mph 28.8 mph 0.00 in Snow Light Snow
12:56 PM 16.0 °F -1.7 °F 8.1 °F 71% 30.14 in 1.2 mi NNW 21.9 mph - 0.00 in Snow Light Snow
1:29 PM 17.1 °F 1.0 °F 9.0 °F 71% 30.01 in 3.0 mi NNW 18.4 mph 28.8 mph 0.00 in   Partly Cloudy
1:56 PM 18.0 °F 2.2 °F 9.0 °F 68% 30.14 in 7.0 mi NNW 18.4 mph 28.8 mph 0.00 in   Mostly Cloudy
2:56 PM 19.9 °F 3.2 °F 10.9 °F 68% 30.14 in 4.0 mi NNW 23.0 mph 33.4 mph 0.00 in   Clear
3:56 PM 19.9 °F 2.5 °F 10.9 °F 68% 30.15 in 4.0 mi NNW 25.3 mph 31.1 mph 0.00 in   Clear
4:56 PM 19.9 °F 4.3 °F 10.0 °F 65% 30.17 in 10.0 mi NNW 19.6 mph - 0.00 in   Clear
5:56 PM 19.0 °F 3.6 °F 10.0 °F 68% 30.17 in 10.0 mi NW 18.4 mph - N/A   Clear
6:56 PM 18.0 °F 2.6 °F 9.0 °F 68% 30.18 in 10.0 mi NW 17.3 mph - N/A   Clear
7:56 PM 16.0 °F 2.3 °F 8.1 °F 71% 30.20 in 10.0 mi NW 12.7 mph - 0.00 in   Clear
8:56 PM 12.0 °F 0.5 °F 5.0 °F 73% 30.21 in 10.0 mi NNW 8.1 mph - 0.00 in   Clear
9:56 PM 8.1 °F -4.3 °F 1.9 °F 76% 30.22 in 10.0 mi NW 8.1 mph - N/A   Clear
10:56 PM 7.0 °F -5.7 °F 1.0 °F 77% 30.22 in 10.0 mi NNW 8.1 mph - N/A   Clear
11:56 PM 5.0 °F -8.1 °F 1.0 °F 84% 30.21 in 10.0 mi NW 8.1 mph - N/A   Clear